Temperature
11 11 10 10 10 10 10 10 10 9 9 9 9 9 9 9 9 10 10 10 10 10 10 10 10 10 10 10 10 10 10 10 10 10 10 10 10 10 10 10 10 10 10
10 10 10 10 10 10 9 9 9 9 9 9 9 9 9 9 9 9 9 9 9 9 9 9 10 10 10 9 9 10 10 10 10 10 10 9 9 9 10 10 10 10 10
10 10 10 9 9 9 9 9 9 9 9 9 9 8 9 9 9 9 9 9 9 9 9 9 9 9 9 9 9 9 9 9 9 9 9 9 9 9 9 9 9 9 9
10 9 9 9 9 9 8 8 8 8 8 8 8 8 8 8 8 8 8 8 9 9 9 8 8 8 9 9 9 9 9 9 9 9 9 8 8 8 9 9 9 9 9
9 9 9 9 8 8 8 8 8 8 8 8 8 8 8 8 8 8 8 8 8 8 8 8 8 8 8 8 8 8 8 9 9 8 8 8 8 8 8 8 8 8 8
9 9 9 8 8 8 8 8 8 8 8 8 8 8 8 8 8 8 8 8 8 8 8 8 8 8 8 8 8 8 8 8 8 8 8 8 8 8 8 8 8 8 8
9 8 8 8 8 8 8 8 8 8 8 8 8 8 8 8 8 8 8 8 8 7 7 7 7 7 8 8 8 8 8 8 8 8 8 8 8 8 8 8 8 8 8
8 8 8 8 8 8 8 8 8 8 8 8 8 8 8 8 8 7 7 7 7 7 7 7 7 7 7 8 8 8 8 8 8 8 8 8 8 8 8 8 8 8 8
8 8 8 8 8 8 8 8 7 8 8 8 8 8 8 8 7 7 7 7 7 7 7 7 7 7 7 7 8 8 8 8 8 8 8 8 8 8 8 8 8 8 8
8 8 8 8 8 8 8 8 7 8 8 8 7 7 7 7 7 7 7 7 7 7 7 7 7 7 7 7 7 7 8 8 8 8 8 8 8 8 8 8 9 9 9
8 8 8 8 8 8 8 8 7 8 7 7 7 7 7 7 7 7 7 7 7 7 7 7 7 7 7 7 7 7 7 7 8 8 8 8 8 8 8 8 8 9 9
8 8 8 8 8 8 8 8 8 8 7 7 7 7 7 7 7 7 7 7 7 7 7 7 7 7 7 7 7 7 7 7 8 8 8 8 8 8 8 9 9 9 9
8 8 8 8 8 8 8 8 8 8 8 7 7 7 7 7 7 7 7 7 7 7 7 7 7 7 7 7 8 8 8 8 8 8 8 8 8 8 9 9 9 9 9
8 8 8 8 8 8 8 8 8 8 8 8 8 7 7 7 7 7 7 7 7 7 7 7 7 7 7 8 8 8 8 8 8 8 8 8 8 9 9 9 9 9 9
8 8 8 8 8 8 8 8 8 8 8 8 8 8 7 7 7 7 7 7 7 7 8 8 8 8 8 8 8 8 8 8 8 8 8 9 9 9 9 9 9 9 9
8 8 8 8 8 8 8 8 8 8 8 8 8 8 7 7 7 7 7 7 7 8 8 8 8 8 8 8 8 8 8 8 8 9 9 9 9 9 9 9 9 9 9
8 8 8 8 8 8 8 8 8 8 8 8 8 8 8 8 7 7 8 8 8 8 8 8 8 8 8 8 8 9 9 9 9 9 9 9 9 9 9 9 9 10 10
8 8 8 8 8 8 8 8 8 8 8 8 8 8 8 8 8 8 8 8 8 8 8 8 8 9 9 9 9 9 9 9 9 9 9 9 9 9 9 9 10 10 10
8 8 8 8 8 8 8 8 8 8 9 9 8 8 8 8 8 8 8 8 8 8 8 9 9 9 9 9 9 9 9 9 9 9 9 10 10 10 10 10 10 10 10
8 8 8 9 9 9 9 9 9 9 9 9 9 9 9 9 9 9 9 9 9 9 9 9 9 9 9 9 9 9 9 9 10 10 10 10 10 10 10 10 10 10 10
9 9 9 9 9 9 9 9 9 9 9 9 9 9 9 9 9 9 9 9 9 9 9 9 9 9 9 9 10 10 10 10 10 10 10 10 10 10 10 10 10 10 10
9 9 9 9 9 9 9 9 10 10 10 10 10 10 9 9 9 9 9 9 9 9 9 9 10 10 10 10 10 10 10 10 10 10 10 10 10 10 10 10 10 10 10
9 9 9 9 9 10 10 10 10 10 10 10 10 10 10 10 10 10 10 10 10 10 10 10 10 10 10 10 10 10 10 10 10 10 10 10 10 10 10 10 10 10 10
9 9 9 9 10 10 10 10 10 10 10 10 10 10 10 10 10 10 10 10 10 10 10 10 10 10 10 10 10 10 10 10 10 10 10 10 10 10 10 10 10 10 10
9 10 10 10 10 10 10 10 10 10 10 10 10 10 11 10 10 10 10 10 10 10 10 10 10 10 10 10 10 10 10 10 10 10 10 10 10 10 10 10 10 10 10
10 10 10 10 10 10 10 10 10 11 11 11 11 11 11 11 11 11 11 10 10 10 10 10 10 10 10 10 10 10 10 10 10 10 10 10 10 10 10 10 10 10 10
Wind_Speed
3 4 4 4 4 4 4 3 3 3 3 3 4 4 4 5 4 4 4 4 3 3 3 2 3 2 1 1 1 1 1 2 2 1 0 1 1 2 3 5 6 7 8
3 4 4 3 4 4 3 3 3 3 3 3 3 4 4 5 5 4 4 4 4 4 4 3 3 2 2 1 1 1 1 2 3 3 1 1 2 2 3 4 5 6 7
4 4 3 3 3 3 2 3 3 3 3 4 4 4 4 4 5 5 4 4 4 4 4 3 3 2 2 1 1 1 2 2 3 4 2 1 2 2 3 4 5 4 5
5 4 3 2 2 2 2 2 3 3 3 4 4 4 4 4 4 4 4 4 4 4 5 4 3 2 2 1 1 2 2 3 4 4 3 2 2 2 3 3 3 2 2
4 4 2 2 2 3 3 3 3 4 4 3 4 4 4 4 4 4 3 3 3 4 5 5 4 4 3 1 1 2 3 3 4 4 4 3 2 3 3 2 3 2 2
4 3 2 2 3 3 3 4 4 4 4 4 4 4 5 4 5 4 3 2 3 3 4 4 4 5 5 3 1 2 4 5 5 5 4 5 4 3 3 3 4 3 0
4 3 3 3 3 3 3 4 4 3 3 4 3 3 4 5 6 5 4 2 3 3 3 3 4 4 5 3 3 4 2 3 5 5 6 6 5 5 5 4 3 3 2
4 3 3 3 3 3 3 3 2 2 2 2 2 3 3 5 7 5 5 4 3 3 3 3 3 4 3 2 2 3 2 1 2 4 5 5 5 5 5 4 4 3 1
4 2 2 3 3 2 2 2 1 2 2 1 1 2 3 5 7 5 4 3 3 4 4 4 3 3 3 2 3 3 3 2 3 4 4 5 6 6 6 4 4 4 1
3 2 2 2 2 2 1 1 1 1 1 2 2 2 2 3 6 5 3 2 2 3 4 4 5 4 4 3 3 3 3 1 2 3 2 2 2 3 5 6 6 5 3
3 3 2 1 1 1 0 0 1 1 2 2 2 3 3 3 5 5 3 1 1 1 3 3 3 4 4 4 3 2 2 2 2 2 1 1 0 1 2 4 5 5 4
3 3 2 1 1 1 1 1 1 1 2 2 2 3 3 4 4 4 3 2 1 1 1 2 3 4 5 4 3 2 2 3 2 2 1 0 1 1 2 3 4 5 5
3 2 1 1 2 2 1 1 1 1 1 0 0 1 3 4 5 7 6 5 4 2 1 3 4 5 5 3 3 2 2 2 2 2 1 1 2 2 1 1 1 1 2
3 2 1 2 2 2 2 1 1 1 1 0 1 0 1 2 3 4 4 4 5 4 3 4 5 6 4 3 3 3 2 1 2 1 1 1 1 0 0 1 1 0 1
2 2 1 1 1 1 2 1 1 1 3 3 3 3 2 1 3 4 1 2 2 3 3 3 3 3 4 3 3 3 2 1 1 1 1 0 0 0 1 1 1 1 1
2 1 1 1 1 1 1 1 3 2 2 3 4 4 3 4 3 3 2 3 4 3 3 2 3 3 2 2 2 2 2 1 1 0 1 1 1 1 1 1 1 2 2
3 2 1 2 2 1 1 1 2 3 4 4 4 4 4 4 3 3 4 5 5 3 2 2 2 3 3 2 2 2 2 2 2 1 1 2 2 2 1 1 1 1 2
3 3 2 2 3 3 3 3 3 2 3 3 4 6 6 5 5 4 4 4 4 2 1 2 3 3 3 2 2 2 2 2 1 1 1 2 2 1 1 2 2 2 2
3 3 2 3 3 3 3 3 3 4 4 3 3 4 6 6 5 5 2 1 2 3 3 3 3 3 3 3 3 2 2 2 2 2 2 2 2 1 2 2 2 3 2
3 5 4 3 3 3 3 4 4 4 4 4 4 5 3 1 2 3 2 3 3 4 4 4 4 4 3 3 3 2 2 2 2 2 2 2 2 2 2 3 3 3 3
3 4 5 3 4 4 4 4 4 4 4 4 5 6 7 5 5 5 4 4 5 5 5 5 4 4 4 3 3 3 3 3 3 3 3 3 2 2 3 3 3 3 3
4 4 3 4 4 4 4 4 4 4 5 5 5 5 8 5 5 5 5 6 6 6 5 5 5 4 4 4 3 3 3 3 3 3 3 3 3 3 3 3 3 3 3
4 4 4 4 4 5 5 4 4 5 5 5 6 5 5 6 6 6 7 7 6 6 6 6 5 5 6 7 6 5 4 5 5 4 4 3 3 3 3 3 4 4 4
4 5 5 5 5 5 5 5 5 5 6 6 6 6 6 7 7 8 7 7 6 6 7 7 7 8 9 9 8 9 9 9 8 6 5 4 4 4 3 4 4 5 5
5 5 5 5 5 6 6 6 6 6 6 6 6 6 6 7 7 7 7 7 7 7 8 9 9 10 12 13 12 12 12 12 11 9 7 4 5 5 4 5 5 5 6
6 6 6 5 6 6 6 6 6 6 6 6 6 6 7 7 7 8 7 7 7 7 8 9 12 13 14 14 15 15 15 14 14 13 10 5 5 5 5 5 6 6 7
Wind_Direction
97 93 87 75 67 63 57 48 40 30 29 31 24 26 30 28 23 26 15 8 9 354 349 352 324 301 294 288 265 234 205 175 190 211 351 47 61 71 68 74 83 97 106
107 97 91 80 69 62 45 31 34 37 35 36 38 38 33 26 18 21 12 8 6 353 342 339 325 317 308 286 246 219 194 169 166 172 155 121 101 117 95 85 84 95 102
108 102 91 81 76 63 40 23 33 45 36 33 39 39 34 28 22 18 16 15 11 360 350 340 327 328 311 296 243 188 177 158 146 153 153 119 107 118 101 83 85 80 92
118 112 102 93 85 72 50 39 41 57 58 51 49 39 37 32 21 16 20 21 14 8 360 355 343 333 295 259 193 170 151 134 133 139 138 123 115 114 120 116 95 70 79
115 110 114 104 79 64 53 46 46 53 63 60 56 38 27 27 14 18 19 25 17 10 3 2 3 4 356 285 193 169 152 146 144 144 142 137 141 144 153 147 129 101 50
123 114 104 88 75 65 61 56 55 49 48 51 50 41 29 13 2 22 37 21 14 13 1 358 0 7 13 32 101 166 177 169 164 162 160 160 168 162 152 148 136 126 172
116 108 99 92 81 71 71 63 55 48 52 49 41 43 26 357 7 22 38 32 21 5 358 1 13 15 16 33 60 73 100 167 178 172 168 174 174 174 162 158 158 157 187
118 112 107 97 90 75 69 66 57 55 58 50 37 26 18 359 8 21 37 37 30 15 14 15 18 7 11 32 66 71 60 68 156 168 174 179 175 173 172 170 165 142 60
125 127 119 110 103 86 74 67 63 72 54 43 32 24 20 353 3 25 50 42 35 16 10 15 14 9 3 61 78 82 65 41 80 124 149 162 173 182 173 141 134 124 116
136 133 119 113 115 109 104 93 58 86 77 49 37 19 16 353 358 27 55 58 41 11 2 4 12 18 24 77 93 101 90 67 83 92 92 108 162 192 189 177 164 154 155
135 113 104 101 122 144 113 87 109 87 58 34 24 6 2 348 353 16 51 67 71 18 359 349 351 25 43 62 79 99 139 134 109 104 98 91 77 202 203 192 184 166 168
114 103 100 84 73 99 85 31 65 102 72 26 7 354 350 346 357 5 40 63 99 73 343 330 341 21 37 39 45 57 102 113 105 103 103 117 204 223 225 238 222 215 215
106 102 97 66 41 60 80 39 30 64 90 62 52 338 335 343 354 12 23 33 41 40 330 330 348 4 15 20 13 36 82 91 101 115 154 220 229 228 243 306 314 280 272
117 112 109 91 52 32 36 59 91 80 114 125 148 208 317 342 346 349 352 359 13 18 2 348 350 355 9 9 6 18 33 117 150 171 219 247 293 321 178 170 169 132 351
125 122 117 114 103 64 44 39 149 229 208 187 201 194 183 262 288 298 299 340 349 342 354 7 7 3 1 352 348 344 348 10 78 152 156 147 358 268 255 212 175 165 188
137 140 148 160 165 141 104 5 343 270 280 241 219 203 223 225 242 283 312 329 341 354 39 23 350 335 321 311 319 321 321 307 281 224 166 176 207 236 258 256 199 194 222
168 186 194 198 202 206 201 203 290 317 306 293 275 248 234 239 260 293 327 340 346 14 33 337 314 302 295 290 272 256 268 263 248 232 225 230 227 232 233 254 250 234 256
185 211 216 217 215 221 229 234 233 239 272 289 285 264 259 261 272 294 326 357 348 359 316 301 297 293 286 275 263 253 266 283 270 249 243 239 225 217 228 248 250 245 255
201 219 229 235 234 234 242 244 241 239 242 254 273 280 264 269 283 288 296 268 274 287 290 289 283 284 283 276 268 261 257 255 254 246 250 247 236 215 237 251 256 263 257
222 233 231 237 253 258 257 252 248 242 238 241 245 248 246 226 268 275 248 244 256 265 269 271 275 274 271 270 267 262 260 258 259 248 247 246 240 225 237 249 249 249 251
218 242 244 245 247 247 249 248 243 234 231 235 244 244 214 208 232 245 247 243 241 249 255 257 260 264 260 255 253 252 245 248 250 243 242 241 230 229 236 238 244 247 251
210 232 240 247 255 257 256 250 241 237 237 240 250 255 230 222 233 243 250 252 247 241 242 242 251 254 249 239 232 225 224 236 245 239 239 242 240 239 242 245 249 250 250
213 231 248 259 259 262 265 261 249 246 245 244 241 240 231 229 236 242 246 250 251 248 243 234 238 253 255 250 240 220 215 225 230 216 216 232 237 236 233 238 245 251 253
222 234 244 254 256 254 257 261 259 254 251 245 240 238 235 234 239 244 246 249 247 246 245 240 237 239 241 247 247 239 237 237 233 223 213 215 226 236 236 238 245 248 251
231 237 242 248 254 254 255 259 260 259 257 249 243 242 241 237 239 244 246 244 244 246 248 247 245 243 244 247 246 243 242 242 240 235 229 220 227 234 237 241 247 254 254
235 242 245 247 248 247 247 251 255 256 255 252 248 247 245 241 240 243 245 245 247 248 252 251 246 244 247 250 251 249 248 247 247 245 238 230 231 240 241 246 252 255 261
Height
1544 1544 1543 1543 1543 1543 1542 1541 1541 1540 1539 1538 1537 1535 1534 1532 1531 1529 1528 1527 1525 1523 1522 1521 1519 1519 1518 1518 1519 1519 1521 1522 1522 1524 1525 1526 1526 1527 1527 1527 1527 1528 1528
1544 1544 1543 1543 1543 1543 1542 1542 1541 1540 1539 1538 1537 1535 1534 1532 1531 1529 1527 1525 1524 1522 1520 1518 1517 1516 1515 1515 1515 1516 1517 1518 1519 1520 1522 1523 1525 1525 1526 1527 1527 1527 1528
1544 1544 1544 1543 1543 1543 1542 1542 1541 1540 1539 1538 1537 1535 1534 1532 1531 1529 1527 1525 1523 1521 1518 1516 1514 1513 1512 1512 1512 1513 1514 1515 1517 1518 1520 1522 1523 1524 1526 1527 1527 1528 1529
1544 1544 1544 1543 1543 1543 1542 1542 1542 1541 1539 1538 1537 1536 1535 1533 1531 1529 1527 1525 1522 1520 1517 1515 1513 1512 1511 1510 1510 1511 1512 1513 1515 1516 1518 1520 1522 1523 1525 1527 1528 1529 1530
1544 1544 1544 1544 1543 1543 1543 1543 1542 1541 1540 1539 1538 1537 1535 1533 1531 1529 1527 1525 1522 1519 1517 1514 1513 1511 1510 1509 1509 1509 1510 1511 1513 1515 1517 1520 1521 1523 1525 1527 1528 1530 1531
1544 1544 1544 1544 1544 1544 1544 1543 1542 1542 1541 1540 1538 1537 1536 1534 1532 1530 1528 1525 1523 1520 1517 1515 1513 1511 1510 1509 1509 1509 1510 1511 1512 1514 1516 1518 1521 1523 1525 1527 1529 1531 1532
1544 1544 1544 1544 1544 1544 1544 1544 1543 1542 1541 1540 1539 1538 1536 1535 1533 1531 1529 1526 1523 1521 1518 1516 1514 1512 1511 1510 1509 1510 1510 1511 1513 1514 1516 1518 1520 1523 1525 1527 1529 1531 1532
1544 1544 1545 1545 1545 1544 1544 1544 1543 1543 1542 1541 1540 1539 1537 1535 1534 1532 1529 1527 1525 1522 1520 1517 1515 1514 1513 1512 1511 1511 1511 1512 1513 1515 1516 1519 1521 1523 1526 1528 1529 1531 1533
1544 1545 1545 1545 1545 1545 1545 1544 1544 1543 1542 1541 1540 1539 1538 1536 1535 1533 1531 1529 1526 1523 1521 1519 1517 1516 1514 1514 1513 1512 1512 1513 1514 1515 1517 1520 1522 1524 1526 1528 1530 1531 1533
1545 1545 1546 1546 1546 1546 1545 1545 1545 1544 1543 1542 1541 1540 1539 1537 1536 1534 1532 1530 1527 1525 1523 1521 1519 1518 1516 1516 1515 1515 1515 1515 1516 1517 1519 1521 1523 1525 1527 1528 1530 1531 1532
1545 1546 1546 1546 1546 1546 1546 1546 1545 1545 1544 1543 1542 1541 1539 1538 1537 1535 1533 1531 1529 1527 1525 1523 1521 1520 1519 1518 1518 1518 1517 1518 1519 1520 1521 1522 1524 1525 1527 1529 1530 1532 1533
1546 1546 1546 1546 1546 1546 1546 1546 1546 1545 1544 1543 1542 1541 1540 1539 1537 1536 1534 1532 1531 1529 1527 1525 1524 1522 1521 1521 1521 1521 1521 1521 1521 1522 1523 1524 1525 1527 1528 1530 1531 1532 1533
1546 1546 1547 1547 1547 1547 1547 1546 1546 1545 1544 1543 1543 1542 1540 1539 1538 1537 1535 1534 1532 1531 1529 1528 1526 1525 1524 1524 1523 1523 1523 1523 1524 1524 1525 1526 1527 1528 1529 1530 1531 1532 1533
1547 1547 1547 1547 1547 1547 1547 1547 1546 1545 1544 1543 1542 1542 1541 1540 1539 1538 1536 1535 1534 1532 1531 1530 1529 1528 1527 1526 1526 1526 1526 1526 1526 1526 1527 1528 1528 1529 1530 1530 1531 1532 1532
1547 1548 1548 1548 1548 1548 1547 1547 1546 1546 1545 1544 1543 1542 1541 1540 1539 1538 1537 1536 1535 1534 1533 1532 1531 1530 1529 1529 1528 1528 1528 1528 1528 1528 1528 1529 1529 1530 1530 1531 1531 1532 1532
1548 1548 1548 1548 1548 1548 1548 1547 1547 1546 1545 1544 1543 1542 1541 1541 1539 1539 1538 1537 1536 1535 1534 1533 1532 1531 1531 1530 1530 1530 1529 1529 1529 1529 1530 1530 1530 1530 1531 1531 1531 1532 1532
1548 1549 1549 1549 1549 1548 1548 1547 1547 1546 1545 1544 1543 1542 1541 1540 1540 1539 1539 1538 1537 1536 1535 1534 1533 1533 1532 1532 1531 1531 1530 1530 1530 1530 1531 1531 1531 1531 1531 1531 1531 1531 1531
1549 1549 1549 1549 1549 1549 1548 1547 1547 1546 1545 1544 1543 1542 1541 1540 1540 1539 1539 1538 1538 1537 1536 1535 1534 1533 1533 1532 1532 1531 1531 1531 1531 1531 1531 1531 1531 1531 1531 1531 1531 1531 1530
1549 1549 1549 1549 1549 1548 1548 1547 1546 1545 1545 1544 1543 1542 1541 1541 1540 1539 1539 1538 1537 1537 1536 1535 1535 1534 1533 1532 1532 1532 1531 1531 1531 1531 1531 1531 1531 1531 1530 1530 1530 1529 1529
1548 1548 1548 1548 1548 1547 1547 1546 1545 1544 1544 1543 1542 1542 1541 1540 1539 1539 1538 1538 1537 1536 1536 1535 1535 1534 1533 1532 1532 1532 1531 1531 1531 1530 1530 1530 1530 1530 1529 1529 1528 1527 1527
1547 1547 1547 1547 1547 1546 1546 1545 1544 1544 1543 1542 1541 1541 1540 1540 1539 1538 1538 1537 1536 1536 1535 1535 1534 1533 1533 1532 1531 1531 1530 1530 1529 1529 1529 1529 1528 1528 1527 1527 1526 1525 1524
1546 1546 1546 1546 1545 1545 1544 1544 1543 1542 1542 1541 1540 1540 1539 1538 1538 1537 1537 1536 1535 1534 1534 1533 1533 1532 1531 1531 1530 1529 1529 1528 1528 1527 1527 1526 1526 1525 1525 1524 1523 1522 1521
1544 1544 1544 1544 1544 1543 1543 1542 1541 1540 1540 1539 1538 1537 1537 1536 1536 1535 1534 1534 1533 1533 1532 1531 1531 1530 1529 1529 1528 1527 1527 1526 1525 1525 1525 1524 1523 1522 1521 1520 1519 1519 1518
1542 1542 1542 1542 1541 1541 1540 1540 1539 1538 1538 1537 1536 1535 1534 1534 1533 1532 1532 1531 1531 1530 1529 1529 1528 1527 1527 1526 1525 1525 1524 1523 1522 1522 1521 1521 1520 1519 1518 1517 1516 1515 1513
1539 1539 1539 1539 1539 1538 1538 1537 1536 1536 1535 1534 1533 1532 1531 1531 1530 1529 1529 1528 1527 1527 1526 1525 1524 1524 1523 1523 1522 1521 1520 1520 1519 1518 1518 1517 1516 1515 1514 1512 1511 1510 1509
1537 1536 1536 1536 1535 1535 1534 1534 1533 1532 1532 1531 1530 1529 1528 1527 1527 1526 1525 1524 1524 1523 1522 1521 1521 1520 1519 1518 1518 1517 1516 1515 1515 1514 1513 1512 1511 1510 1509 1508 1506 1505 1503